User: anonymous   Login
Location: Aurora Center
(43.5271°N, 98.5894°W)
Time: 01:50:12
(UTC-05:00)
Language:

Envisat - Orbit

View from above orbital plane
View from above orbital plane
View from above satellite
View from above satellite

Ground track
Ground track

The orbit data is extracted from the following two-line orbital elements,

1 27386U 02009A   24194.88815394  .00000223  00000-0  86642-4 0  9990
2 27386  98.2834 155.0855 0001407  86.8597 284.7742 14.38604366172270
Epoch (UTC): 12 July 2024 21:18:56
Eccentricity: 0.0001407
inclination: 98.2834°
perigee height: 762 km
apogee height: 764 km
right ascension of ascending node: 155.0855°
argument of perigee: 86.8597°
revolutions per day: 14.38604366
mean anomaly at epoch: 284.7742°
orbit number at epoch: 17227

The dashed part of the orbit path shows where the satellite is in the earth's shadow,  

DLR